Year,Month,Day,Hour,Minute,Value (Times are PST for windspeed in km/hr)
2012,01,24,00,00,0.00
2012,01,24,00,01,0.00
2012,01,24,00,02,0.00
2012,01,24,00,03,0.00
2012,01,24,00,04,0.00
2012,01,24,00,05,0.00
2012,01,24,00,06,0.10
2012,01,24,00,07,0.00
2012,01,24,00,08,0.70
2012,01,24,00,09,1.00
2012,01,24,00,10,0.10
2012,01,24,00,11,0.00
2012,01,24,00,12,0.10
2012,01,24,00,13,0.00
2012,01,24,00,14,0.40
2012,01,24,00,15,0.00
2012,01,24,00,16,0.00
2012,01,24,00,17,0.00
2012,01,24,00,18,0.00
2012,01,24,00,19,2.20
2012,01,24,00,20,1.90
2012,01,24,00,21,0.50
2012,01,24,00,22,0.00
2012,01,24,00,23,0.00
2012,01,24,00,24,0.00
2012,01,24,00,25,0.00
2012,01,24,00,26,0.00
2012,01,24,00,27,0.00
2012,01,24,00,28,0.20
2012,01,24,00,29,3.50
2012,01,24,00,30,3.00
2012,01,24,00,31,0.50
2012,01,24,00,32,0.10
2012,01,24,00,33,0.80
2012,01,24,00,34,0.40
2012,01,24,00,35,0.20
2012,01,24,00,36,0.10
2012,01,24,00,37,0.20
2012,01,24,00,38,1.30
2012,01,24,00,39,3.00
2012,01,24,00,40,2.60
2012,01,24,00,41,1.00
2012,01,24,00,42,0.00
2012,01,24,00,43,0.00
2012,01,24,00,44,3.40
2012,01,24,00,45,5.90
2012,01,24,00,46,3.10
2012,01,24,00,47,0.00
2012,01,24,00,48,1.10
2012,01,24,00,49,2.70
2012,01,24,00,50,3.20
2012,01,24,00,51,1.10
2012,01,24,00,52,0.00
2012,01,24,00,53,0.00
2012,01,24,00,54,1.50
2012,01,24,00,55,1.00
2012,01,24,00,56,3.10
2012,01,24,00,57,2.70
2012,01,24,00,58,0.10
2012,01,24,00,59,0.00
2012,01,24,01,00,0.00
2012,01,24,01,01,0.40
2012,01,24,01,02,0.60
2012,01,24,01,03,0.00
2012,01,24,01,04,0.00
2012,01,24,01,05,1.40
2012,01,24,01,06,3.40
2012,01,24,01,07,3.60
2012,01,24,01,08,2.10
2012,01,24,01,09,0.10
2012,01,24,01,10,0.00
2012,01,24,01,11,0.00
2012,01,24,01,12,1.50
2012,01,24,01,13,0.50
2012,01,24,01,14,0.00
2012,01,24,01,15,0.00
2012,01,24,01,16,1.50
2012,01,24,01,17,1.80
2012,01,24,01,18,0.00
2012,01,24,01,19,0.00
2012,01,24,01,20,0.00
2012,01,24,01,21,0.10
2012,01,24,01,22,0.00
2012,01,24,01,23,0.10
2012,01,24,01,24,2.20
2012,01,24,01,25,1.90
2012,01,24,01,26,4.20
2012,01,24,01,27,5.10
2012,01,24,01,28,3.90
2012,01,24,01,29,4.10
2012,01,24,01,30,1.20
2012,01,24,01,31,0.20
2012,01,24,01,32,2.00
2012,01,24,01,33,2.60
2012,01,24,01,34,0.30
2012,01,24,01,35,0.00
2012,01,24,01,36,0.10
2012,01,24,01,37,3.40
2012,01,24,01,38,1.90
2012,01,24,01,39,0.00
2012,01,24,01,40,1.40
2012,01,24,01,41,2.40
2012,01,24,01,42,1.40
2012,01,24,01,43,1.80
2012,01,24,01,44,0.30
2012,01,24,01,45,0.10
2012,01,24,01,46,0.00
2012,01,24,01,47,0.80
2012,01,24,01,48,1.10
2012,01,24,01,49,3.60
2012,01,24,01,50,3.90
2012,01,24,01,51,1.70
2012,01,24,01,52,0.40
2012,01,24,01,53,0.10
2012,01,24,01,54,0.00
2012,01,24,01,55,0.10
2012,01,24,01,56,3.50
2012,01,24,01,57,0.30
2012,01,24,01,58,0.00
2012,01,24,01,59,0.00
2012,01,24,02,00,1.00
2012,01,24,02,01,0.30
2012,01,24,02,02,0.00
2012,01,24,02,03,0.00
2012,01,24,02,04,0.00
2012,01,24,02,05,0.00
2012,01,24,02,06,0.70
2012,01,24,02,07,0.20
2012,01,24,02,08,0.60
2012,01,24,02,09,1.20
2012,01,24,02,10,0.00
2012,01,24,02,11,1.20
2012,01,24,02,12,6.00
2012,01,24,02,13,4.40
2012,01,24,02,14,0.20
2012,01,24,02,15,1.40
2012,01,24,02,16,0.00
2012,01,24,02,17,0.00
2012,01,24,02,18,0.60
2012,01,24,02,19,0.10
2012,01,24,02,20,0.40
2012,01,24,02,21,0.00
2012,01,24,02,22,0.30
2012,01,24,02,23,2.10
2012,01,24,02,24,0.00
2012,01,24,02,25,0.00
2012,01,24,02,26,0.10
2012,01,24,02,27,0.10
2012,01,24,02,28,1.80
2012,01,24,02,29,3.10
2012,01,24,02,30,6.40
2012,01,24,02,31,9.70
2012,01,24,02,32,6.90
2012,01,24,02,33,5.30
2012,01,24,02,34,3.50
2012,01,24,02,35,1.00
2012,01,24,02,36,1.60
2012,01,24,02,37,5.00
2012,01,24,02,38,3.80
2012,01,24,02,39,1.00
2012,01,24,02,40,0.20
2012,01,24,02,41,2.30
2012,01,24,02,42,1.90
2012,01,24,02,43,3.50
2012,01,24,02,44,1.00
2012,01,24,02,45,3.30
2012,01,24,02,46,5.20
2012,01,24,02,47,4.50
2012,01,24,02,48,3.60
2012,01,24,02,49,0.10
2012,01,24,02,50,0.00
2012,01,24,02,51,0.20
2012,01,24,02,52,4.20
2012,01,24,02,53,3.20
2012,01,24,02,54,0.00
2012,01,24,02,55,0.10
2012,01,24,02,56,0.70
2012,01,24,02,57,0.10
2012,01,24,02,58,0.10
2012,01,24,02,59,0.00
2012,01,24,03,00,0.00
2012,01,24,03,01,0.00
2012,01,24,03,02,0.50
2012,01,24,03,03,3.00
2012,01,24,03,04,1.10
2012,01,24,03,05,3.20
2012,01,24,03,06,0.60
2012,01,24,03,07,1.80
2012,01,24,03,08,5.40
2012,01,24,03,09,6.50
2012,01,24,03,10,6.40
2012,01,24,03,11,4.00
2012,01,24,03,12,1.90
2012,01,24,03,13,4.40
2012,01,24,03,14,4.00
2012,01,24,03,15,4.70
2012,01,24,03,16,0.10
2012,01,24,03,17,3.20
2012,01,24,03,18,0.50
2012,01,24,03,19,1.50
2012,01,24,03,20,4.80
2012,01,24,03,21,5.80
2012,01,24,03,22,5.30
2012,01,24,03,23,2.20
2012,01,24,03,24,3.70
2012,01,24,03,25,0.10
2012,01,24,03,26,0.10
2012,01,24,03,27,0.90
2012,01,24,03,28,0.10
2012,01,24,03,29,0.00
2012,01,24,03,30,0.00
2012,01,24,03,31,0.80
2012,01,24,03,32,2.00
2012,01,24,03,33,3.40
2012,01,24,03,34,3.50
2012,01,24,03,35,1.40
2012,01,24,03,36,3.00
2012,01,24,03,37,2.40
2012,01,24,03,38,1.10
2012,01,24,03,39,0.10
2012,01,24,03,40,0.80
2012,01,24,03,41,5.00
2012,01,24,03,42,5.10
2012,01,24,03,43,2.80
2012,01,24,03,44,1.70
2012,01,24,03,45,1.00
2012,01,24,03,46,3.90
2012,01,24,03,47,5.10
2012,01,24,03,48,3.70
2012,01,24,03,49,4.50
2012,01,24,03,50,5.00
2012,01,24,03,51,5.10
2012,01,24,03,52,5.90
2012,01,24,03,53,3.90
2012,01,24,03,54,6.50
2012,01,24,03,55,5.20
2012,01,24,03,56,4.50
2012,01,24,03,57,6.00
2012,01,24,03,58,3.70
2012,01,24,03,59,2.80
2012,01,24,04,00,4.20
2012,01,24,04,01,4.30
2012,01,24,04,02,4.10
2012,01,24,04,03,1.70
2012,01,24,04,04,1.60
2012,01,24,04,05,0.60
2012,01,24,04,06,4.20
2012,01,24,04,07,3.30
2012,01,24,04,08,1.50
2012,01,24,04,09,0.00
2012,01,24,04,10,0.60
2012,01,24,04,11,2.10
2012,01,24,04,12,3.10
2012,01,24,04,13,1.70
2012,01,24,04,14,0.70
2012,01,24,04,15,1.90
2012,01,24,04,16,1.70
2012,01,24,04,17,4.90
2012,01,24,04,18,0.30
2012,01,24,04,19,0.50
2012,01,24,04,20,0.10
2012,01,24,04,21,0.00
2012,01,24,04,22,1.00
2012,01,24,04,23,2.60
2012,01,24,04,24,4.10
2012,01,24,04,25,2.00
2012,01,24,04,26,1.40
2012,01,24,04,27,3.20
2012,01,24,04,28,0.20
2012,01,24,04,29,1.40
2012,01,24,04,30,4.30
2012,01,24,04,31,1.30
2012,01,24,04,32,3.80
2012,01,24,04,33,0.50
2012,01,24,04,34,0.60
2012,01,24,04,35,1.40
2012,01,24,04,36,4.30
2012,01,24,04,37,3.60
2012,01,24,04,38,7.30
2012,01,24,04,39,2.10
2012,01,24,04,40,6.40
2012,01,24,04,41,3.90
2012,01,24,04,42,1.40
2012,01,24,04,43,1.90
2012,01,24,04,44,1.40
2012,01,24,04,45,2.40
2012,01,24,04,46,3.60
2012,01,24,04,47,3.10
2012,01,24,04,48,10.90
2012,01,24,04,49,6.20
2012,01,24,04,50,4.80
2012,01,24,04,51,5.10
2012,01,24,04,52,2.60
2012,01,24,04,53,1.90
2012,01,24,04,54,2.30
2012,01,24,04,55,5.40
2012,01,24,04,56,1.80
2012,01,24,04,57,1.20
2012,01,24,04,58,2.30
2012,01,24,04,59,1.70
2012,01,24,05,00,1.40
2012,01,24,05,01,3.50
2012,01,24,05,02,6.00
2012,01,24,05,03,1.30
2012,01,24,05,04,2.20
2012,01,24,05,05,3.50
2012,01,24,05,06,2.70
2012,01,24,05,07,2.40
2012,01,24,05,08,2.70
2012,01,24,05,09,6.00
2012,01,24,05,10,4.50
2012,01,24,05,11,5.40
2012,01,24,05,12,4.80
2012,01,24,05,13,2.50
2012,01,24,05,14,2.80
2012,01,24,05,15,4.60
2012,01,24,05,16,0.60
2012,01,24,05,17,4.80
2012,01,24,05,18,4.10
2012,01,24,05,19,2.80
2012,01,24,05,20,0.10
2012,01,24,05,21,3.40
2012,01,24,05,22,6.60
2012,01,24,05,23,3.20
2012,01,24,05,24,7.00
2012,01,24,05,25,9.00
2012,01,24,05,26,6.60
2012,01,24,05,27,5.00
2012,01,24,05,28,2.20
2012,01,24,05,29,1.70
2012,01,24,05,30,8.90
2012,01,24,05,31,5.70
2012,01,24,05,32,7.40
2012,01,24,05,33,9.60
2012,01,24,05,34,6.70
2012,01,24,05,35,10.40
2012,01,24,05,36,8.60
2012,01,24,05,37,7.60
2012,01,24,05,38,10.10
2012,01,24,05,39,9.80
2012,01,24,05,40,5.20
2012,01,24,05,41,12.60
2012,01,24,05,42,8.30
2012,01,24,05,43,11.40
2012,01,24,05,44,12.90
2012,01,24,05,45,10.40
2012,01,24,05,46,12.80
2012,01,24,05,47,7.50
2012,01,24,05,48,7.60
2012,01,24,05,49,7.00
2012,01,24,05,50,10.80
2012,01,24,05,51,13.20
2012,01,24,05,52,8.50
2012,01,24,05,53,12.60
2012,01,24,05,54,7.10
2012,01,24,05,55,8.60
2012,01,24,05,56,8.70
2012,01,24,05,57,8.30
2012,01,24,05,58,5.60
2012,01,24,05,59,11.20
2012,01,24,06,00,14.60
2012,01,24,06,01,10.90
2012,01,24,06,02,7.90
2012,01,24,06,03,6.30
2012,01,24,06,04,8.30
2012,01,24,06,05,7.60
2012,01,24,06,06,4.70
2012,01,24,06,07,3.50
2012,01,24,06,08,0.20
2012,01,24,06,09,10.10
2012,01,24,06,10,4.80
2012,01,24,06,11,2.60
2012,01,24,06,12,1.50
2012,01,24,06,13,4.00
2012,01,24,06,14,3.20
2012,01,24,06,15,2.40
2012,01,24,06,16,3.60
2012,01,24,06,17,7.50
2012,01,24,06,18,4.10
2012,01,24,06,19,10.30
2012,01,24,06,20,10.50
2012,01,24,06,21,8.30
2012,01,24,06,22,5.80
2012,01,24,06,23,6.00
2012,01,24,06,24,4.30
2012,01,24,06,25,7.20
2012,01,24,06,26,7.50
2012,01,24,06,27,8.50
2012,01,24,06,28,7.20
2012,01,24,06,29,5.40
2012,01,24,06,30,7.10
2012,01,24,06,31,8.00
2012,01,24,06,32,6.90
2012,01,24,06,33,6.90
2012,01,24,06,34,11.40
2012,01,24,06,35,8.20
2012,01,24,06,36,9.30
2012,01,24,06,37,6.40
2012,01,24,06,38,4.40
2012,01,24,06,39,8.00
2012,01,24,06,40,8.80
2012,01,24,06,41,7.70
2012,01,24,06,42,14.20
2012,01,24,06,43,8.80
2012,01,24,06,44,15.10
2012,01,24,06,45,10.40
2012,01,24,06,46,9.30
2012,01,24,06,47,14.10
2012,01,24,06,48,11.40
2012,01,24,06,49,7.80
2012,01,24,06,50,8.20
2012,01,24,06,51,13.10
2012,01,24,06,52,12.30
2012,01,24,06,53,11.60
2012,01,24,06,54,10.90
2012,01,24,06,55,12.60
2012,01,24,06,56,12.70
2012,01,24,06,57,13.40
2012,01,24,06,58,13.40
2012,01,24,06,59,9.60
2012,01,24,07,00,9.20
2012,01,24,07,01,13.80
2012,01,24,07,02,14.90
2012,01,24,07,03,10.50
2012,01,24,07,04,12.60
2012,01,24,07,05,9.60
2012,01,24,07,06,9.30
2012,01,24,07,07,16.70
2012,01,24,07,08,17.40
2012,01,24,07,09,17.10
2012,01,24,07,10,14.00
2012,01,24,07,11,19.20
2012,01,24,07,12,15.70
2012,01,24,07,13,16.00
2012,01,24,07,14,18.40
2012,01,24,07,15,20.10
2012,01,24,07,16,16.00
2012,01,24,07,17,18.30
2012,01,24,07,18,15.70
2012,01,24,07,19,16.10
2012,01,24,07,20,17.50
2012,01,24,07,21,14.40
2012,01,24,07,22,15.10
2012,01,24,07,23,14.40
2012,01,24,07,24,19.80
2012,01,24,07,25,15.60
2012,01,24,07,26,15.80
2012,01,24,07,27,13.70
2012,01,24,07,28,13.40
2012,01,24,07,29,13.20
2012,01,24,07,30,17.50
2012,01,24,07,31,12.20
2012,01,24,07,32,15.40
2012,01,24,07,33,14.30
2012,01,24,07,34,10.30
2012,01,24,07,35,13.00
2012,01,24,07,36,11.10
2012,01,24,07,37,13.10
2012,01,24,07,38,14.30
2012,01,24,07,39,14.50
2012,01,24,07,40,10.80
2012,01,24,07,41,15.80
2012,01,24,07,42,12.40
2012,01,24,07,43,11.40
2012,01,24,07,44,7.30
2012,01,24,07,45,7.80
2012,01,24,07,46,16.70
2012,01,24,07,47,18.20
2012,01,24,07,48,17.60
2012,01,24,07,49,12.00
2012,01,24,07,50,10.40
2012,01,24,07,51,10.00
2012,01,24,07,52,5.60
2012,01,24,07,53,11.00
2012,01,24,07,54,14.10
2012,01,24,07,55,10.10
2012,01,24,07,56,15.70
2012,01,24,07,57,15.00
2012,01,24,07,58,14.90
2012,01,24,07,59,15.50
2012,01,24,08,00,15.60
2012,01,24,08,01,15.40
2012,01,24,08,02,17.00
2012,01,24,08,03,12.00
2012,01,24,08,04,14.30
2012,01,24,08,05,19.60
2012,01,24,08,06,17.30
2012,01,24,08,07,15.00
2012,01,24,08,08,10.10
2012,01,24,08,09,12.70
2012,01,24,08,10,13.90
2012,01,24,08,11,14.20
2012,01,24,08,12,16.00
2012,01,24,08,13,15.30
2012,01,24,08,14,18.70
2012,01,24,08,15,17.70
2012,01,24,08,16,15.80
2012,01,24,08,17,15.30
2012,01,24,08,18,14.40
2012,01,24,08,19,17.20
2012,01,24,08,20,14.20
2012,01,24,08,21,14.10
2012,01,24,08,22,13.10
2012,01,24,08,23,13.90
2012,01,24,08,24,17.90
2012,01,24,08,25,18.20
2012,01,24,08,26,16.80
2012,01,24,08,27,12.20
2012,01,24,08,28,15.50
2012,01,24,08,29,16.80
2012,01,24,08,30,17.80
2012,01,24,08,31,16.80
2012,01,24,08,32,18.50
2012,01,24,08,33,15.50
2012,01,24,08,34,16.20
2012,01,24,08,35,17.50
2012,01,24,08,36,18.90
2012,01,24,08,37,20.10
2012,01,24,08,38,19.30
2012,01,24,08,39,18.40
2012,01,24,08,40,16.90
2012,01,24,08,41,14.10
2012,01,24,08,42,16.30
2012,01,24,08,43,17.60
2012,01,24,08,44,15.80
2012,01,24,08,45,12.60
2012,01,24,08,46,16.70
2012,01,24,08,47,12.00
2012,01,24,08,48,10.20
2012,01,24,08,49,12.10
2012,01,24,08,50,12.70
2012,01,24,08,51,13.10
2012,01,24,08,52,14.60
2012,01,24,08,53,15.10
2012,01,24,08,54,11.40
2012,01,24,08,55,14.80
2012,01,24,08,56,13.90
2012,01,24,08,57,15.90
2012,01,24,08,58,10.10
2012,01,24,08,59,8.00
2012,01,24,09,00,14.60
2012,01,24,09,01,2.70
2012,01,24,09,02,13.40
2012,01,24,09,03,7.70
2012,01,24,09,04,10.60
2012,01,24,09,05,11.70
2012,01,24,09,06,14.00
2012,01,24,09,07,9.30
2012,01,24,09,08,9.50
2012,01,24,09,09,5.50
2012,01,24,09,10,6.10
2012,01,24,09,11,9.50
2012,01,24,09,12,5.40
2012,01,24,09,13,6.60
2012,01,24,09,14,4.90
2012,01,24,09,15,3.20
2012,01,24,09,16,3.40
2012,01,24,09,17,5.50
2012,01,24,09,18,4.70
2012,01,24,09,19,5.20
2012,01,24,09,20,5.40
2012,01,24,09,21,5.30
2012,01,24,09,22,6.80
2012,01,24,09,23,8.60
2012,01,24,09,24,10.20
2012,01,24,09,25,9.60
2012,01,24,09,26,10.30
2012,01,24,09,27,12.80
2012,01,24,09,28,10.50
2012,01,24,09,29,12.50
2012,01,24,09,30,12.00
2012,01,24,09,31,11.40
2012,01,24,09,32,7.40
2012,01,24,09,33,14.40
2012,01,24,09,34,15.40
2012,01,24,09,35,16.20
2012,01,24,09,36,15.10
2012,01,24,09,37,16.80
2012,01,24,09,38,10.70
2012,01,24,09,39,13.00
2012,01,24,09,40,16.60
2012,01,24,09,41,14.90
2012,01,24,09,42,13.00
2012,01,24,09,43,14.70
2012,01,24,09,44,14.80
2012,01,24,09,45,12.90
2012,01,24,09,46,10.50
2012,01,24,09,47,13.80
2012,01,24,09,48,8.10
2012,01,24,09,49,7.80
2012,01,24,09,50,7.20
2012,01,24,09,51,8.90
2012,01,24,09,52,10.40
2012,01,24,09,53,7.60
2012,01,24,09,54,6.40
2012,01,24,09,55,7.70
2012,01,24,09,56,6.70
2012,01,24,09,57,5.10
2012,01,24,09,58,6.30
2012,01,24,09,59,8.40
2012,01,24,10,00,3.50
2012,01,24,10,01,3.10
2012,01,24,10,02,0.30
2012,01,24,10,03,7.70
2012,01,24,10,04,3.00
2012,01,24,10,05,0.60
2012,01,24,10,06,0.90
2012,01,24,10,07,2.70
2012,01,24,10,08,2.10
2012,01,24,10,09,4.00
2012,01,24,10,10,5.60
2012,01,24,10,11,8.10
2012,01,24,10,12,1.90
2012,01,24,10,13,3.10
2012,01,24,10,14,3.90
2012,01,24,10,15,3.70
2012,01,24,10,16,8.90
2012,01,24,10,17,7.70
2012,01,24,10,18,7.70
2012,01,24,10,19,7.30
2012,01,24,10,20,4.70
2012,01,24,10,21,6.50
2012,01,24,10,22,1.40
2012,01,24,10,23,1.80
2012,01,24,10,24,3.20
2012,01,24,10,25,1.70
2012,01,24,10,26,0.90
2012,01,24,10,27,0.10
2012,01,24,10,28,1.70
2012,01,24,10,29,4.30
2012,01,24,10,30,4.80
2012,01,24,10,31,7.30
2012,01,24,10,32,7.20
2012,01,24,10,33,6.40
2012,01,24,10,34,6.10
2012,01,24,10,35,6.40
2012,01,24,10,36,5.80
2012,01,24,10,37,4.60
2012,01,24,10,38,6.00
2012,01,24,10,39,6.30
2012,01,24,10,40,5.00
2012,01,24,10,41,5.80
2012,01,24,10,42,7.70
2012,01,24,10,43,6.00
2012,01,24,10,44,7.00
2012,01,24,10,45,3.60
2012,01,24,10,46,6.10
2012,01,24,10,47,5.30
2012,01,24,10,48,4.70
2012,01,24,10,49,4.20
2012,01,24,10,50,4.30
2012,01,24,10,51,8.50
2012,01,24,10,52,6.00
2012,01,24,10,53,3.90
2012,01,24,10,54,3.70
2012,01,24,10,55,4.90
2012,01,24,10,56,1.10
2012,01,24,10,57,6.60
2012,01,24,10,58,8.30
2012,01,24,10,59,1.30
2012,01,24,11,00,5.00
2012,01,24,11,01,8.00
2012,01,24,11,02,6.80
2012,01,24,11,03,4.80
2012,01,24,11,04,0.90
2012,01,24,11,05,8.50
2012,01,24,11,06,4.50
2012,01,24,11,07,4.60
2012,01,24,11,08,4.10
2012,01,24,11,09,7.40
2012,01,24,11,10,8.00
2012,01,24,11,11,4.70
2012,01,24,11,12,8.00
2012,01,24,11,13,5.30
2012,01,24,11,14,4.70
2012,01,24,11,15,5.00
2012,01,24,11,16,4.80
2012,01,24,11,17,1.60
2012,01,24,11,18,6.30
2012,01,24,11,19,4.50
2012,01,24,11,20,3.50
2012,01,24,11,21,5.30
2012,01,24,11,22,5.90
2012,01,24,11,23,2.80
2012,01,24,11,24,5.50
2012,01,24,11,25,4.40
2012,01,24,11,26,5.00
2012,01,24,11,27,2.60
2012,01,24,11,28,4.80
2012,01,24,11,29,2.80
2012,01,24,11,30,4.50
2012,01,24,11,31,3.60
2012,01,24,11,32,4.10
2012,01,24,11,33,2.70
2012,01,24,11,34,3.50
2012,01,24,11,35,4.20
2012,01,24,11,36,5.10
2012,01,24,11,37,4.20
2012,01,24,11,38,2.70
2012,01,24,11,39,3.10
2012,01,24,11,40,4.60
2012,01,24,11,41,4.70
2012,01,24,11,42,7.20
2012,01,24,11,43,8.40
2012,01,24,11,44,9.00
2012,01,24,11,45,6.80
2012,01,24,11,46,4.80
2012,01,24,11,47,7.30
2012,01,24,11,48,5.60
2012,01,24,11,49,7.50
2012,01,24,11,50,8.30
2012,01,24,11,51,4.30
2012,01,24,11,52,6.00
2012,01,24,11,53,5.70
2012,01,24,11,54,5.90
2012,01,24,11,55,6.10
2012,01,24,11,56,5.50
2012,01,24,11,57,8.60
2012,01,24,11,58,10.10
2012,01,24,11,59,11.00
2012,01,24,12,00,9.00
2012,01,24,12,01,7.00
2012,01,24,12,02,7.00
2012,01,24,12,03,6.50
2012,01,24,12,04,4.40
2012,01,24,12,05,8.90
2012,01,24,12,06,8.30
2012,01,24,12,07,10.30
2012,01,24,12,08,9.70
2012,01,24,12,09,9.40
2012,01,24,12,10,9.80
2012,01,24,12,11,10.60
2012,01,24,12,12,4.30
2012,01,24,12,13,5.70
2012,01,24,12,14,7.50
2012,01,24,12,15,6.50
2012,01,24,12,16,4.20
2012,01,24,12,17,5.40
2012,01,24,12,18,6.20
2012,01,24,12,19,7.70
2012,01,24,12,20,5.90
2012,01,24,12,21,6.30
2012,01,24,12,22,3.90
2012,01,24,12,23,5.60
2012,01,24,12,24,7.90
2012,01,24,12,25,6.50
2012,01,24,12,26,7.30
2012,01,24,12,27,8.30
2012,01,24,12,28,6.90
2012,01,24,12,29,4.80
2012,01,24,12,30,4.90
2012,01,24,12,31,7.20
2012,01,24,12,32,6.40
2012,01,24,12,33,6.90
2012,01,24,12,34,8.90
2012,01,24,12,35,9.70
2012,01,24,12,36,9.70
2012,01,24,12,37,6.90
2012,01,24,12,38,4.90
2012,01,24,12,39,4.60
2012,01,24,12,40,8.20
2012,01,24,12,41,7.50
2012,01,24,12,42,6.30
2012,01,24,12,43,7.10
2012,01,24,12,44,6.90
2012,01,24,12,45,3.10
2012,01,24,12,46,5.80
2012,01,24,12,47,5.60
2012,01,24,12,48,5.90
2012,01,24,12,49,6.50
2012,01,24,12,50,5.50
2012,01,24,12,51,4.80
2012,01,24,12,52,7.20
2012,01,24,12,53,7.60
2012,01,24,12,54,5.10
2012,01,24,12,55,4.70
2012,01,24,12,56,6.70
2012,01,24,12,57,6.00
2012,01,24,12,58,5.30
2012,01,24,12,59,6.20
2012,01,24,13,00,4.60
2012,01,24,13,01,4.20
2012,01,24,13,02,5.10
2012,01,24,13,03,5.70
2012,01,24,13,04,7.60
2012,01,24,13,05,7.40
2012,01,24,13,06,7.60
2012,01,24,13,07,8.00
2012,01,24,13,08,7.20
2012,01,24,13,09,3.30
2012,01,24,13,10,2.90
2012,01,24,13,11,4.70
2012,01,24,13,12,7.70
2012,01,24,13,13,7.80
2012,01,24,13,14,7.20
2012,01,24,13,15,6.10
2012,01,24,13,16,6.60
2012,01,24,13,17,4.70
2012,01,24,13,18,6.00
2012,01,24,13,19,4.50
2012,01,24,13,20,2.30
2012,01,24,13,21,2.70
2012,01,24,13,22,3.60
2012,01,24,13,23,4.90
2012,01,24,13,24,1.70
2012,01,24,13,25,3.10
2012,01,24,13,26,4.40
2012,01,24,13,27,5.10
2012,01,24,13,28,5.60
2012,01,24,13,29,4.00
2012,01,24,13,30,2.60
2012,01,24,13,31,2.50
2012,01,24,13,32,3.90
2012,01,24,13,33,5.50
2012,01,24,13,34,3.00
2012,01,24,13,35,5.10
2012,01,24,13,36,6.30
2012,01,24,13,37,4.30
2012,01,24,13,38,5.60
2012,01,24,13,39,9.20
2012,01,24,13,40,8.00
2012,01,24,13,41,6.80
2012,01,24,13,42,2.10
2012,01,24,13,43,3.70
2012,01,24,13,44,7.60
2012,01,24,13,45,7.10
2012,01,24,13,46,7.80
2012,01,24,13,47,4.80
2012,01,24,13,48,6.70
2012,01,24,13,49,5.10
2012,01,24,13,50,4.90
2012,01,24,13,51,7.70
2012,01,24,13,52,5.50
2012,01,24,13,53,8.10
2012,01,24,13,54,6.90
2012,01,24,13,55,5.50
2012,01,24,13,56,5.00
2012,01,24,13,57,5.60
2012,01,24,13,58,5.60
2012,01,24,13,59,4.10
2012,01,24,14,00,5.80
2012,01,24,14,01,7.20
2012,01,24,14,02,4.70
2012,01,24,14,03,2.10
2012,01,24,14,04,6.80
2012,01,24,14,05,5.10
2012,01,24,14,06,4.30
2012,01,24,14,07,2.30
2012,01,24,14,08,4.60
2012,01,24,14,09,2.30
2012,01,24,14,10,3.10
2012,01,24,14,11,1.90
2012,01,24,14,12,0.50
2012,01,24,14,13,7.20
2012,01,24,14,14,5.60
2012,01,24,14,15,4.50
2012,01,24,14,16,0.90
2012,01,24,14,17,2.40
2012,01,24,14,18,3.50
2012,01,24,14,19,2.90
2012,01,24,14,20,2.90
2012,01,24,14,21,1.30
2012,01,24,14,22,6.90
2012,01,24,14,23,5.20
2012,01,24,14,24,1.50
2012,01,24,14,25,5.30
2012,01,24,14,26,3.10
2012,01,24,14,27,2.20
2012,01,24,14,28,8.00
2012,01,24,14,29,4.10
2012,01,24,14,30,4.70
2012,01,24,14,31,3.80
2012,01,24,14,32,4.00
2012,01,24,14,33,5.60
2012,01,24,14,34,7.50
2012,01,24,14,35,7.70
2012,01,24,14,36,5.80
2012,01,24,14,37,4.60
2012,01,24,14,38,6.30
2012,01,24,14,39,5.40
2012,01,24,14,40,1.80
2012,01,24,14,41,2.90
2012,01,24,14,42,5.80
2012,01,24,14,43,4.90
2012,01,24,14,44,4.70
2012,01,24,14,45,4.50
2012,01,24,14,46,1.70
2012,01,24,14,47,2.60
2012,01,24,14,48,0.50
2012,01,24,14,49,3.90
2012,01,24,14,50,6.10
2012,01,24,14,51,3.20
2012,01,24,14,52,3.40
2012,01,24,14,53,1.70
2012,01,24,14,54,2.30
2012,01,24,14,55,0.00
2012,01,24,14,56,2.20
2012,01,24,14,57,1.00
2012,01,24,14,58,2.20
2012,01,24,14,59,5.60
2012,01,24,15,00,5.60
2012,01,24,15,01,3.10
2012,01,24,15,02,4.50
2012,01,24,15,03,3.40
2012,01,24,15,04,1.40
2012,01,24,15,05,1.10
2012,01,24,15,06,1.30
2012,01,24,15,07,4.00
2012,01,24,15,08,1.90
2012,01,24,15,09,1.90
2012,01,24,15,10,1.20
2012,01,24,15,11,2.90
2012,01,24,15,12,2.60
2012,01,24,15,13,5.60
2012,01,24,15,14,4.50
2012,01,24,15,15,4.40
2012,01,24,15,16,6.00
2012,01,24,15,17,3.10
2012,01,24,15,18,5.60
2012,01,24,15,19,6.00
2012,01,24,15,20,6.10
2012,01,24,15,21,5.10
2012,01,24,15,22,5.60
2012,01,24,15,23,3.50
2012,01,24,15,24,5.10
2012,01,24,15,25,3.20
2012,01,24,15,26,5.40
2012,01,24,15,27,2.90
2012,01,24,15,28,0.10
2012,01,24,15,29,0.90
2012,01,24,15,30,1.10
2012,01,24,15,31,0.60
2012,01,24,15,32,0.50
2012,01,24,15,33,0.80
2012,01,24,15,34,2.50
2012,01,24,15,35,0.60
2012,01,24,15,36,3.40
2012,01,24,15,37,2.90
2012,01,24,15,38,3.20
2012,01,24,15,39,0.30
2012,01,24,15,40,1.30
2012,01,24,15,41,1.80
2012,01,24,15,42,3.70
2012,01,24,15,43,1.10
2012,01,24,15,44,3.50
2012,01,24,15,45,0.80
2012,01,24,15,46,1.40
2012,01,24,15,47,4.70
2012,01,24,15,48,4.60
2012,01,24,15,49,2.00
2012,01,24,15,50,0.60
2012,01,24,15,51,0.00
2012,01,24,15,52,0.00
2012,01,24,15,53,0.00
2012,01,24,15,54,0.00
2012,01,24,15,55,0.00
2012,01,24,15,56,0.00
2012,01,24,15,57,0.00
2012,01,24,15,58,0.00
2012,01,24,15,59,4.30
2012,01,24,16,00,2.50
2012,01,24,16,01,0.50
2012,01,24,16,02,2.10
2012,01,24,16,03,1.10
2012,01,24,16,04,0.50
2012,01,24,16,05,1.40
2012,01,24,16,06,2.00
2012,01,24,16,07,6.70
2012,01,24,16,08,4.70
2012,01,24,16,09,3.10
2012,01,24,16,10,2.10
2012,01,24,16,11,3.20
2012,01,24,16,12,4.80
2012,01,24,16,13,3.40
2012,01,24,16,14,4.70
2012,01,24,16,15,0.10
2012,01,24,16,16,4.20
2012,01,24,16,17,6.40
2012,01,24,16,18,2.20
2012,01,24,16,19,2.30
2012,01,24,16,20,1.30
2012,01,24,16,21,1.90
2012,01,24,16,22,0.90
2012,01,24,16,23,1.40
2012,01,24,16,24,1.40
2012,01,24,16,25,0.00
2012,01,24,16,26,0.00
2012,01,24,16,27,1.10
2012,01,24,16,28,3.90
2012,01,24,16,29,4.30
2012,01,24,16,30,4.30
2012,01,24,16,31,1.50
2012,01,24,16,32,0.70
2012,01,24,16,33,0.00
2012,01,24,16,34,0.00
2012,01,24,16,35,0.00
2012,01,24,16,36,2.00
2012,01,24,16,37,3.00
2012,01,24,16,38,2.30
2012,01,24,16,39,1.10
2012,01,24,16,40,0.00
2012,01,24,16,41,0.00
2012,01,24,16,42,0.00
2012,01,24,16,43,0.00
2012,01,24,16,44,0.00
2012,01,24,16,45,0.00
2012,01,24,16,46,0.00
2012,01,24,16,47,0.00
2012,01,24,16,48,0.00
2012,01,24,16,49,0.00
2012,01,24,16,50,0.00
2012,01,24,16,51,0.00
2012,01,24,16,52,1.90
2012,01,24,16,53,0.50
2012,01,24,16,54,0.60
2012,01,24,16,55,0.00
2012,01,24,16,56,0.00
2012,01,24,16,57,0.00
2012,01,24,16,58,0.00
2012,01,24,16,59,0.00
2012,01,24,17,00,0.00
2012,01,24,17,01,0.00
2012,01,24,17,02,1.00
2012,01,24,17,03,1.50
2012,01,24,17,04,0.70
2012,01,24,17,05,0.60
2012,01,24,17,06,0.00
2012,01,24,17,07,0.40
2012,01,24,17,08,0.10
2012,01,24,17,09,0.00
2012,01,24,17,10,0.30
2012,01,24,17,11,1.10
2012,01,24,17,12,0.10
2012,01,24,17,13,0.00
2012,01,24,17,14,0.10
2012,01,24,17,15,0.00
2012,01,24,17,16,0.00
2012,01,24,17,17,0.00
2012,01,24,17,18,0.50
2012,01,24,17,19,1.90
2012,01,24,17,20,0.00
2012,01,24,17,21,1.80
2012,01,24,17,22,6.20
2012,01,24,17,23,6.00
2012,01,24,17,24,4.70
2012,01,24,17,25,5.80
2012,01,24,17,26,7.80
2012,01,24,17,27,8.70
2012,01,24,17,28,6.40
2012,01,24,17,29,8.20
2012,01,24,17,30,7.70
2012,01,24,17,31,12.70
2012,01,24,17,32,9.00
2012,01,24,17,33,12.30
2012,01,24,17,34,17.50
2012,01,24,17,35,16.90
2012,01,24,17,36,20.00
2012,01,24,17,37,16.00
2012,01,24,17,38,18.30
2012,01,24,17,39,17.90
2012,01,24,17,40,13.80
2012,01,24,17,41,16.30
2012,01,24,17,42,20.30
2012,01,24,17,43,16.30
2012,01,24,17,44,18.80
2012,01,24,17,45,17.90
2012,01,24,17,46,15.30
2012,01,24,17,47,18.50
2012,01,24,17,48,24.50
2012,01,24,17,49,25.20
2012,01,24,17,50,14.90
2012,01,24,17,51,14.70
2012,01,24,17,52,17.10
2012,01,24,17,53,12.20
2012,01,24,17,54,14.50
2012,01,24,17,55,13.00
2012,01,24,17,56,9.30
2012,01,24,17,57,12.70